Regional Weather Roundup
Issued by NWS Charleston, SC

Current Version | Previous Version | Graphics & Text | Print | Product List | Glossary On
Versions: 1 2 3 4 5 6 7 8 9 10 11 12 13 14 15 16 17 18 19 20 21 22 23 24 25 26 27 28 29 30 31 32 33 34 35 36 37 38 39 40 41 42 43 44 45 46 47 48 49 50
000
ASUS42 KCHS 241027
RWRCHS

REGIONAL WEATHER ROUNDUP
NATIONAL WEATHER SERVICE CHARLESTON SC
500 AM EST TUE JAN 24 2017

NOTE: "FAIR" INDICATES FEW OR NO CLOUDS BELOW 12,000 FEET WITH NO
SIGNIFICANT WEATHER AND/OR OBSTRUCTIONS TO VISIBILITY.

NOT ALL STATIONS ARE QUALITY CONTROLLED. USE DATA WITH CAUTION...
ESPECIALLY DEWPOINT OBSERVATIONS.

SCZ027-030-031-034>040-042>050-241100-
...SOUTHEAST SOUTH CAROLINA...

CITY           SKY/WX    TMP DP  RH WIND       PRES   REMARKS
N CHARLESTON   CLEAR     51  45  79 W12       29.61R
WATERFRONT PRK   N/A     53  48  83 W7        29.60R
MOUNT PLEASANT FAIR      52  46  82 W7        29.61R
JOHNS ISLAND   FAIR      52  46  82 W10       29.62R
PINOPOLIS        N/A     54  48  82 W13       29.52R
MONCKS CORNER  FAIR      48  45  87 W3        29.61R
SUMMERVILLE    FAIR      50  46  87 W7        29.63R
BEAUFORT MCAS  PTCLDY    52  44  74 W12       29.64R
BEAUFORT ARPT  FAIR      50  45  81 NW12G17   29.65R
HILTON HEAD IS CLEAR     52  45  76 NW9G18    29.66R
WALTERBORO     SUNNY     48  43  81 W9        29.64R
ALLENDALE      FAIR      50  43  76 CALM      29.64S

...SOUTHERN MIDLANDS AND PEE DEE...

CITY           SKY/WX    TMP DP  RH WIND       PRES   REMARKS
GEORGETOWN     FAIR      48  46  93 W3        29.60R
KINGSTREE      PTSUNNY   45  43  93 W3        29.59S
ORANGEBURG     CLEAR     50  44  80 W8        29.62R
BARNWELL       FAIR      50  45  81 W7        29.64S
AIKEN          FAIR      45  41  87 W9        29.67R
MANNING        FAIR      48  45  87 CALM      29.60R
COLUMBIA       CLEAR     50  43  77 W9        29.60R
SUMTER         CLEAR     48  45  90 W7        29.57R
FLORENCE       CLEAR     46  44  93 NW3       29.58R
MYRTLE BEACH   CLEAR     48  41  76 NW7       29.59S
N MYRTLE BEACH CLEAR     48  45  89 W3        29.56R

$$

GAZ063-065-086>088-099>101-113>116-118-119-134>141-150-241100-
...SOUTHEAST GEORGIA...

CITY           SKY/WX    TMP DP  RH WIND       PRES   REMARKS
SAVANNAH ARPT  CLEAR     50  43  77 NW9       29.66S
HUNTER AAF     PTCLDY    50  47  89 W8        29.64R
FORT STEWART   CLEAR     52  44  74 W12       29.66R
STATESBORO     CLEAR     50  46  84 W8        29.68R
SYLVANIA       SUNNY    N/A N/A N/A NW9       29.67S
CLAXTON        FAIR     N/A N/A N/A SW13G25   29.69R

...CSRA...CENTRAL AND FAR SOUTHEAST GEORGIA...

CITY           SKY/WX    TMP DP  RH WIND       PRES   REMARKS
THOMSON        CLEAR     49  45  86 W8        29.72R
AUGUSTA-BUSH   CLEAR     50  41  71 NW10      29.65R
AUGUSTA-DANIEL CLEAR     49  40  71 W8G20     29.65R
SWAINSBORO     FAIR      48  45  87 W8        29.72R
VIDALIA        CLEAR     50  48  93 W7        29.73R
EASTMAN        FAIR      51  39  63 NW5       29.77S
HAZLEHURST     FAIR      52  48  87 NW6       29.73S
ALMA           CLEAR     53  47  79 W8        29.74R
WAYCROSS       CLEAR     54  53  96 W6        29.76R
JESUP          FAIR      54  45  71 NW13      29.73R
BAXLEY         FAIR      54  50  87 NW8       29.74R
BRUNSWICK      CLEAR     54  50  87 W10G17    29.73R
SAINT SIMONS   CLEAR     55  46  71 W10       29.70R

$$

SCZ027-028-034-036>038-045-046-048>050-GAZ119-141-241100-
...LAKE AND SUPPLEMENTAL COASTAL OBSERVATIONS...

STATION/POSITION TIME  TEMP    WIND        PRES    WAVE   SWELL
                       AIR SEA DIR/SP/G            HT/PER HT/PER/DIR
                 (UTC) (F)     (DEG/KT/KT) (MB)    (FT/S) (FT/S/D)
WINYAH BAY       0930   51     280/  5     1001.0S
LAKE MURRAY      1020   50     270/  9/ 13 1002.4
ACE BASIN NERRS  0945   51     270/  3     1003.0S
FORT PULASKI     1000   53 58  310/ 15/ 18 1004.3
SAPELO ISLAND    1000   54     280/ 10     1005.0

$$

ANZ835-935-AMZ111-154-330-350-352-354-370-450-454-472-241100-
...C-MAN AND BUOY OBSERVATIONS...

STATION/POSITION TIME  TEMP    WIND        PRES    WAVE   SWELL
                       AIR SEA DIR/SP/G            HT/PER HT/PER/DIR
                 (UTC) (F)     (DEG/KT/KT) (MB)    (FT/S) (FT/S/D)
BUOY 41004       0950   59 69  290/ 21/ 27 1001.1R   7/ 8   3/140/11
BUOY 41008       0950   56 59  300/ 17/ 19 1003.9S   4/ 5   2/ 70/14
FOLLY BEACH CMAN 1000   52     280/  7/ 10 1003.0R
CAPERS NEARSHORE 1008   54 56  290/ 14/ 17 1002.0R
FRIPP NEARSHORE  1008   54 58  300/ 16/ 19 1003.4R


STATION/POSITION TIME  TEMP    WIND        PRES    WAVE   SWELL
                       AIR SEA DIR/SP/G            HT/PER HT/PER/DIR
                 (UTC) (F)     (DEG/KT/KT) (MB)    (FT/S) (FT/S/D)
5E ST. MARYS GA  1000      62                N/A     3/ 4
FRYING PAN BUOY  1010   57 69  290/ 23/ 31 1000.0
BUOY 41025       0950   49 75  310/ 23/ 29  995.1R   9/12   8/ 80/12
CAPE LOOKOUT NC  1000   46     300/ 19/ 26  997.6R
BUOY 41002       0950   67 71  300/ 23/ 29  996.5R  14/11  11/270/11
BUOY 41010       NOT AVBL
ST AUGUSTINE FL  1000   56 63  270/  9/ 14 1008.1R


$$




USA.gov is the U.S. government's official web portal to all federal, state and local government web resources and services.